Location: Unspecified
(32.5099°N, 80.0190°W)
Time: 13:41:51
(UTC-05:00)

CZ-3 Stage 3 - Visible Passes

Search period start: 21 December 2014 00:00
Search period end: 31 December 2014 00:00
Orbit: 433 x 34798 km, 31.0° (Epoch: 20 December)

Date Brightness Start Highest point End Pass type
(mag) Time Alt. Az. Time Alt. Az. Time Alt. Az.
21 Dec 6.3 02:48:24 84° SW 02:49:38 85° S 03:03:48 10° ESE visible
21 Dec 7.5 14:54:03 10° SE 22:08:51 73° SE 23:24:35 10° ENE visible
22 Dec 9.1 15:51:01 10° E 18:14:27 24° E 18:56:35 20° E visible
22 Dec 10.4 22:27:24 10° WSW 23:25:06 13° WSW 00:44:58 10° W visible
23 Dec 5.5 06:12:39 14° W 06:26:03 24° WSW 06:31:32 10° S visible
23 Dec 6.2 17:43:54 10° SSW 02:45:55 84° S 02:59:16 10° ESE visible
24 Dec 7.5 14:41:53 10° SE 22:04:12 75° SE 23:20:11 10° E visible
25 Dec 9.0 15:34:52 10° E 18:08:36 25° E 18:56:50 20° ENE visible
25 Dec 10.4 22:27:49 10° WSW 23:19:09 12° WSW 00:27:38 10° W visible
26 Dec 5.6 06:10:19 15° W 06:21:07 22° WSW 06:26:34 10° SSW visible
26 Dec 6.0 17:38:56 10° SSW 02:43:34 78° SE 02:54:43 10° ESE visible
27 Dec 7.5 14:30:36 10° SE 21:59:41 76° SE 22:22:14 74° ESE visible
28 Dec 8.9 15:18:54 10° E 18:02:44 27° E 18:56:42 20° ENE visible
28 Dec 10.5 22:29:40 10° WSW 23:13:19 12° WSW 00:08:58 10° W visible
29 Dec 5.5 06:07:49 15° W 06:16:10 20° WSW 06:21:32 10° SSW visible
29 Dec 5.9 17:34:00 10° SSW 02:41:04 70° SE 02:50:10 10° ESE visible
30 Dec 7.6 14:20:13 10° SE 21:55:17 77° SE 22:21:51 74° ESE visible
